This is the latest recevied weather packets stored in our database for station/object WW3TRG. If no packets are shown the sender has not sent any weather packets the latest 1 day(s).
| Time | Temp. | Humidity | Pressure | Rain* | Wind** | Luminosity | Snow |
|---|---|---|---|---|---|---|---|
| 1778103792 | 18.89° C | 93% | 1005.7 hPa | 0 mm | - | 71 W/m² | - |
| 1778102580 | 18.89° C | 92% | 1005.9 hPa | 0 mm | - | 64 W/m² | - |
| 1778102275 | 18.33° C | 92% | 1005.8 hPa | 0 mm | - | 115 W/m² | - |
| 1778101669 | 17.78° C | 95% | 1005.7 hPa | 0 mm | - | 138 W/m² | - |
| 1778100153 | 16.67° C | 99% | 1005.9 hPa | 0 mm | - | 89 W/m² | - |
| 1778099851 | 16.67° C | 99% | 1005.6 hPa | 0 mm | - | 51 W/m² | - |
| 1778098032 | 16.67° C | 99% | 1005.8 hPa | 0 mm | - | 51 W/m² | - |
| 1778097729 | 16.67° C | 99% | 1005.4 hPa | 0 mm | - | 51 W/m² | - |
| 1778096515 | 16.11° C | 99% | 1005.9 hPa | 0 mm | - | 64 W/m² | - |
| 1778096213 | 16.11° C | 99% | 1006 hPa | 0 mm | - | 55 W/m² | - |
| 1778095000 | 16.11° C | 99% | 1006 hPa | 0 mm | - | 100 W/m² | - |
| 1778094090 | 16.11° C | 99% | 1006.2 hPa | 0 mm | - | 84 W/m² | - |
| 1778092878 | 15.56° C | 99% | 1006.5 hPa | 0 mm | - | 38 W/m² | - |
| 1778091363 | 15.56° C | 99% | 1006.5 hPa | 0.51 mm | - | 39 W/m² | - |
| 1778090453 | 15.56° C | 99% | 1006.6 hPa | 1.27 mm | - | 48 W/m² | - |
| 1778088938 | 15.56° C | 99% | 1006.5 hPa | 0 mm | - | 27 W/m² | - |
| 1778087720 | 16.11° C | 99% | 1006.6 hPa | 0.51 mm | - | 91 W/m² | - |
| 1778087417 | 15.56° C | 99% | 1006.9 hPa | 1.27 mm | - | 82 W/m² | - |
| 1778086510 | 15.56° C | 99% | 1006.9 hPa | 1.78 mm | - | 51 W/m² | - |
| 1778085897 | 15.56° C | 99% | 1006.8 hPa | 0 mm | - | 56 W/m² | - |
| 1778085595 | 15.56° C | 99% | 1006.9 hPa | 0.51 mm | - | 37 W/m² | - |
| 1778085290 | 15.56° C | 99% | 1006.8 hPa | 0.51 mm | - | 23 W/m² | - |
| 1778084683 | 15.56° C | 99% | 1007.2 hPa | 0.51 mm | - | 31 W/m² | - |
| 1778084380 | 16.11° C | 99% | 1007.1 hPa | 1.27 mm | - | 43 W/m² | - |
| 1778084078 | 16.11° C | 99% | 1007 hPa | 0 mm | - | 39 W/m² | - |
* Rain latest hour (hover to see other rain measurements)
** Current wind speed in m/s (hover to see current wind gust speed)